Back to catalog

ONEWEB-0657

AliveCommunicationsPO
NORAD 55818·PAYLOAD·🇬🇧 United Kingdom

Launched Mar 9, 2023 from Cape Canaveral Space Force Station

Loading…

Next Passes (next 24 hours)

TLE

FreshSource: CelesTrak SupGP

Epoch: Sep 14, 2026, 09:49 UTC

1 55818C 23029Y   26257.40921713  .00002789  00000+0  69750-2 0  2573
2 55818  87.9107 287.1992 0001768 117.1487 357.1346 13.19722183    17

Track ONEWEB-0657 in real time with AllMySat

Download on the App Store